Theta_e
359 359 362 363 362 362 361 361 358 358 358 358 359 359 359 358 359 360 362 363 363 363 364 364 364 364 364 365 365 365 364 364 364 364 363 363 363 362 361 360 362 362 359 361 362 362 362 362 362 363 363 363 363 364 363 365 365 365 365 365 366 365 365 365 365 365 365 363 362 360 363 363 363 362 362 361 361 360 360 359 360 356 356 358 360
357 360 361 361 361 361 361 362 360 358 357 357 358 358 358 358 359 362 363 364 364 365 365 365 365 364 364 365 365 365 365 364 364 363 364 363 363 362 360 359 361 360 360 361 361 362 361 362 362 362 363 363 364 364 364 365 365 364 365 365 365 364 363 363 363 363 364 364 364 364 363 363 362 362 361 361 361 361 361 360 360 357 356 359 360
358 360 362 362 362 362 362 362 360 359 359 359 359 359 360 360 362 363 364 364 364 364 364 364 364 365 365 364 364 364 364 364 364 363 362 364 363 360 358 358 361 361 361 362 361 361 361 361 362 362 363 363 363 364 364 364 364 364 365 365 364 363 361 362 360 362 365 365 365 365 364 363 362 362 362 361 361 361 359 361 362 361 356 360 360
356 359 362 363 364 362 363 363 362 362 361 361 361 362 362 362 362 363 363 364 364 363 364 365 365 365 365 364 364 364 365 364 364 363 364 363 362 361 359 358 360 361 361 362 361 360 360 361 361 361 362 363 362 364 363 364 364 363 364 364 364 363 363 363 364 363 363 362 360 361 360 358 359 361 360 360 360 360 361 361 361 361 360 359 359
356 358 361 362 362 363 362 362 363 362 359 362 362 362 362 362 363 363 363 364 364 364 365 364 364 364 364 363 363 364 363 364 363 364 363 362 361 360 360 360 360 361 362 362 361 361 361 361 361 361 362 362 363 363 364 363 363 363 363 363 363 361 363 362 362 361 361 362 358 359 356 357 356 360 360 361 360 360 361 360 360 359 361 360 360
355 357 358 358 360 362 363 364 361 361 362 360 356 361 363 362 363 363 363 364 363 362 362 362 362 362 363 364 363 364 364 363 363 363 362 362 360 359 359 359 360 360 361 360 361 361 361 361 362 362 361 362 363 364 363 363 364 364 364 362 362 362 362 363 362 362 361 363 359 356 357 356 356 357 359 360 360 360 360 359 359 358 359 360 359
355 356 357 357 360 363 364 363 363 362 363 361 359 362 362 362 362 362 362 363 364 364 363 363 362 362 363 363 363 363 364 363 362 362 362 361 360 360 359 362 363 362 361 361 362 361 362 361 363 362 361 362 363 364 363 363 364 364 364 363 363 363 362 363 364 362 361 362 353 353 354 355 356 357 360 360 359 359 360 360 359 358 358 358 358
354 355 356 357 361 364 365 363 362 362 362 362 362 363 362 362 362 362 362 362 362 363 362 363 363 362 362 362 362 363 362 361 361 362 363 361 361 360 361 362 362 362 363 362 363 362 362 363 364 363 363 363 364 364 364 364 364 364 364 364 364 361 362 364 365 362 360 358 355 354 354 354 356 358 360 361 360 360 360 360 359 359 358 357 356
353 353 353 357 361 365 364 363 363 362 362 362 364 363 363 362 361 361 361 361 361 361 362 362 361 361 361 362 362 362 361 362 362 362 362 363 362 362 361 362 361 362 362 361 362 362 363 363 362 364 365 364 363 363 363 364 364 364 365 365 362 363 364 364 362 360 357 358 356 355 354 354 355 356 359 360 360 359 359 358 358 359 359 358 358
353 352 354 358 361 365 364 363 362 362 362 362 361 361 361 361 361 360 360 361 362 361 361 361 360 360 361 362 363 361 361 361 361 361 362 361 362 363 363 362 362 362 362 363 363 363 363 362 362 361 361 363 363 363 363 364 364 364 364 365 364 363 361 362 364 357 356 357 357 357 357 360 356 356 358 359 359 358 360 360 360 360 359 360 358
351 351 356 359 362 364 364 364 363 363 362 362 362 362 361 360 360 359 359 360 360 361 361 361 360 360 361 362 362 362 361 360 360 360 360 361 361 362 362 362 362 362 363 363 363 362 363 363 363 362 363 362 363 363 363 364 364 364 363 364 364 363 362 361 362 361 356 356 356 356 359 362 356 356 359 359 359 359 361 360 361 360 360 359 358
350 357 360 363 368 363 363 363 363 364 363 362 361 361 360 359 358 359 357 360 360 362 361 360 359 360 360 360 361 362 361 361 360 360 360 361 361 362 361 362 361 362 362 362 362 363 363 363 362 362 362 363 363 364 364 363 362 362 362 363 363 362 363 362 366 355 354 354 356 355 355 355 355 357 360 360 360 360 360 360 360 359 360 359 358
352 356 359 361 363 364 363 363 363 363 362 361 360 360 360 360 360 360 360 360 358 359 361 359 359 359 360 359 361 360 361 361 362 361 360 361 362 362 362 361 361 362 361 362 362 362 363 363 362 362 362 362 363 363 363 363 362 362 363 363 364 363 361 366 355 355 354 355 356 355 355 356 357 361 360 360 360 360 359 360 360 359 359 359 358
352 355 358 360 361 367 364 364 362 362 362 361 361 361 361 359 360 359 360 360 359 359 360 360 360 359 360 360 360 361 360 360 360 361 360 361 361 361 362 361 360 361 361 362 362 363 363 362 362 362 362 363 363 364 363 363 363 362 362 362 363 362 362 365 357 357 355 354 357 356 356 358 357 361 360 360 360 359 359 359 359 359 359 359 358
353 356 359 360 361 362 366 362 362 361 360 360 361 361 360 360 360 360 359 359 359 358 359 361 360 359 359 360 360 360 361 361 361 361 361 361 362 362 361 360 360 361 361 360 361 362 362 362 362 362 362 363 363 363 362 361 361 360 359 360 361 362 364 350 354 355 354 356 356 355 355 357 359 359 359 360 360 359 359 359 359 359 358 359 359
356 356 358 359 361 361 361 363 361 359 359 358 357 359 359 359 358 358 358 358 359 358 358 360 359 358 359 359 359 361 361 361 361 361 361 361 361 361 360 360 361 360 361 362 362 363 362 362 362 362 362 362 362 362 361 360 359 359 359 360 359 363 364 370 356 357 353 352 352 354 354 357 359 359 359 359 359 359 358 358 357 357 358 358 358
355 357 356 358 360 360 359 359 359 359 358 359 358 358 358 358 358 357 358 358 359 358 358 358 358 360 359 359 360 360 361 360 359 360 361 361 361 361 362 362 362 361 362 362 363 363 363 363 362 361 361 361 361 361 361 360 359 359 360 359 360 365 363 370 352 352 351 354 355 355 355 356 358 358 358 357 358 357 358 357 357 356 357 356 356
356 356 359 357 358 358 358 358 357 356 356 357 358 358 358 358 359 359 358 358 358 358 358 358 359 359 360 358 359 358 360 361 360 360 360 361 361 360 360 361 361 362 363 363 362 363 364 364 363 362 362 362 362 363 362 360 357 357 359 358 361 365 367 371 352 353 353 357 353 356 356 358 357 357 357 357 357 357 357 357 356 357 356 356 355
354 355 356 354 356 358 357 356 356 355 356 357 357 357 359 359 359 358 359 360 360 358 358 357 358 360 359 359 358 359 359 359 359 362 362 362 362 361 362 362 362 362 363 362 363 364 364 363 363 363 363 363 362 361 361 358 359 357 355 361 364 360 365 367 355 356 354 353 353 354 355 359 357 357 357 356 356 356 355 356 356 356 356 355 355
354 355 354 356 358 357 354 354 356 357 358 358 358 358 358 359 359 360 359 359 359 359 359 358 359 360 360 358 358 357 357 356 360 360 361 361 361 361 362 363 363 363 362 363 364 364 363 363 363 362 362 362 362 362 360 360 360 359 361 362 363 362 360 358 353 353 353 355 357 356 360 357 357 357 357 358 357 356 356 356 356 356 355 356 354
353 352 352 355 355 355 355 355 357 357 357 359 358 358 358 360 359 359 359 359 359 359 359 359 359 359 359 358 359 358 358 358 358 357 359 359 360 362 362 362 363 363 363 363 363 363 363 363 363 363 363 362 363 363 362 362 361 361 361 364 361 361 361 356 351 356 353 355 357 357 361 358 357 357 359 359 358 357 356 356 357 357 357 356 355
349 351 353 355 353 355 357 357 357 359 359 358 358 358 358 358 358 358 358 358 359 360 358 356 357 357 359 359 359 358 358 359 359 360 358 360 359 361 361 362 362 362 361 362 362 363 362 364 364 364 364 364 363 362 362 363 364 363 363 364 361 363 364 355 352 354 354 354 357 358 359 358 357 357 358 359 358 357 357 357 357 357 358 357 356
350 350 352 351 352 354 356 357 360 360 359 358 358 358 357 358 358 358 357 357 358 360 359 358 356 356 356 358 362 359 358 358 360 357 359 360 359 361 362 363 362 361 361 362 361 362 363 362 364 365 365 365 363 366 363 361 362 364 365 362 364 364 359 357 356 353 353 354 355 359 359 359 358 358 358 358 358 358 357 357 357 357 357 357 356
349 350 352 354 357 354 354 355 355 359 360 359 358 357 357 359 358 358 358 356 356 357 357 356 356 355 355 357 359 359 359 360 361 362 360 359 360 362 363 363 362 361 362 361 362 362 363 364 365 366 365 365 364 365 361 362 362 363 363 363 359 355 364 358 349 353 354 354 355 360 358 358 357 357 359 358 359 358 358 357 357 357 357 357 357
349 351 352 352 354 354 356 356 358 359 359 360 359 358 360 359 358 359 358 357 357 356 356 355 356 356 359 360 357 357 358 359 359 359 358 360 361 361 361 360 361 361 363 363 363 362 362 363 362 363 364 364 363 362 358 359 359 359 355 360 358 355 341 349 356 354 354 356 359 359 359 357 357 357 358 359 358 358 358 358 357 357 357 358 357
352 349 351 353 352 352 353 356 356 356 357 356 357 359 360 357 358 359 358 357 358 357 357 357 358 360 359 357 357 357 358 359 359 359 360 361 360 360 361 362 362 362 364 364 362 362 363 363 362 362 362 362 357 364 359 358 350 347 352 352 357 357 350 352 354 355 354 355 359 361 359 358 357 358 358 359 359 359 359 358 359 358 359 358 357
351 350 353 354 356 355 356 356 355 357 355 358 357 359 358 358 358 359 357 357 358 357 357 356 358 360 358 358 357 356 356 357 357 360 360 361 360 360 361 362 361 360 363 362 361 363 363 362 364 362 362 361 354 364 360 355 357 346 357 356 358 355 361 354 354 354 353 355 358 360 359 359 359 358 360 360 360 360 359 360 359 360 359 360 360
351 349 350 353 355 356 357 355 356 356 355 358 356 356 357 356 356 360 360 360 359 356 355 357 359 359 360 358 359 357 356 356 357 359 360 360 359 360 362 359 359 360 361 360 360 363 362 365 363 358 355 357 347 350 351 353 357 355 352 357 351 359 352 350 368 356 355 356 358 359 361 358 360 360 361 361 359 359 359 360 361 360 360 361 362
347 347 351 353 354 355 359 355 355 356 357 356 355 356 355 356 357 358 358 362 362 356 357 360 359 359 359 362 361 355 357 357 357 357 361 360 361 360 358 357 358 360 363 360 359 363 365 361 362 360 366 363 357 352 350 355 360 353 350 350 348 358 360 360 360 353 359 360 357 359 357 358 359 361 362 362 363 361 362 362 363 363 363 363 364
347 347 348 351 355 354 356 355 355 353 354 356 355 355 357 359 357 357 358 360 360 357 357 355 359 359 359 360 361 357 355 356 358 360 359 360 361 362 363 360 359 369 362 363 369 369 361 361 363 358 362 354 359 357 358 350 346 351 357 350 346 344 357 356 352 351 355 351 354 357 361 359 359 359 361 362 364 365 364 365 364 365 366 366 366
348 349 348 353 356 356 354 354 358 357 354 352 352 355 357 359 362 357 358 359 361 365 358 356 356 358 360 363 361 365 359 355 358 361 360 359 361 365 359 365 363 361 366 360 363 362 367 365 361 364 367 362 362 356 365 359 347 341 350 343 351 357 361 358 361 351 349 352 355 357 359 363 360 361 362 362 362 363 363 363 364 365 365 366 366
346 346 349 352 354 355 353 355 354 355 354 353 356 354 353 356 359 364 359 360 363 358 359 356 357 357 360 361 363 362 364 360 360 360 358 358 356 357 358 363 361 366 364 361 362 369 370 369 367 371 366 361 364 353 359 348 352 339 356 349 357 348 357 352 350 343 344 355 358 358 359 361 362 362 363 363 363 362 363 363 363 364 366 366 367
348 348 348 351 351 353 353 355 358 357 355 353 353 354 356 355 355 357 360 356 359 358 355 354 357 359 361 360 362 363 366 360 366 364 362 360 354 356 357 359 363 362 363 361 364 368 365 369 366 370 370 363 356 359 351 360 356 353 348 343 346 345 356 361 359 342 347 352 359 358 360 360 359 364 365 365 365 365 365 365 366 366 366 367 367
347 348 349 350 350 352 354 355 354 352 353 351 354 354 355 356 359 357 360 358 356 352 353 357 360 363 364 365 365 368 368 372 370 366 361 360 356 359 362 364 366 369 369 371 368 365 364 362 361 362 362 361 354 359 357 359 343 360 357 349 354 358 355 355 351 349 352 349 357 360 362 362 364 361 362 368 368 367 366 367 367 367 367 367 367
347 348 349 349 350 352 350 353 355 355 354 355 354 355 354 355 359 360 359 359 353 350 352 355 358 358 361 365 369 368 368 370 368 379 364 365 360 361 360 364 367 370 371 372 372 367 368 365 369 365 363 365 356 367 352 353 348 350 357 354 347 360 360 342 358 348 348 360 357 354 359 360 366 364 366 365 369 368 370 368 367 368 366 365 366
347 349 349 349 349 351 352 352 353 354 355 357 357 360 355 356 360 360 356 356 351 350 351 352 355 357 360 364 368 368 369 372 372 371 371 367 362 361 366 371 370 368 371 371 371 369 368 366 369 368 369 359 358 354 358 357 354 343 349 360 354 359 363 351 355 341 346 355 359 360 356 362 356 368 372 365 364 367 370 370 369 366 365 365 364
349 349 348 349 350 351 352 350 352 353 356 355 358 358 360 358 359 352 350 354 348 351 353 353 354 357 361 362 368 370 370 372 372 368 372 368 366 363 365 365 369 372 373 370 368 369 375 358 368 373 367 368 359 351 354 358 357 350 342 344 350 358 359 358 353 343 347 355 359 349 357 355 362 366 365 366 367 366 367 370 369 368 363 364 366
350 349 349 348 348 350 349 351 352 354 357 359 360 357 356 360 358 357 365 354 353 353 359 357 362 358 361 364 369 372 372 370 370 372 375 363 366 364 364 367 368 370 372 370 368 366 366 365 366 374 371 368 363 359 351 349 343 342 355 341 355 354 355 358 359 358 353 354 360 357 358 352 356 356 358 362 362 369 362 366 371 368 368 367 369
349 349 350 352 351 351 353 355 353 355 356 360 364 360 358 361 355 357 357 359 362 356 357 358 358 359 359 366 370 369 367 371 372 369 371 363 366 368 368 367 369 371 370 368 362 365 365 363 361 366 371 369 366 363 353 350 342 342 339 340 345 358 354 353 364 363 348 343 339 352 347 356 350 355 361 365 359 369 367 365 367 368 370 368 370
349 350 352 350 356 354 352 357 357 355 357 359 359 355 355 353 351 355 354 355 355 358 357 356 360 361 361 363 370 372 372 372 370 370 371 373 364 369 368 366 369 372 369 364 362 364 368 366 365 361 364 365 367 360 354 354 350 355 356 346 351 355 365 352 352 354 349 348 348 356 348 353 351 351 353 359 365 362 363 366 368 374 366 365 371
351 351 349 349 353 351 354 355 356 358 358 357 356 354 352 353 354 349 351 351 353 356 353 355 358 358 361 364 370 366 371 371 371 372 370 374 373 373 374 370 369 371 371 365 362 362 368 369 368 367 360 360 358 358 353 352 358 355 359 347 358 359 355 365 353 349 343 343 344 351 349 349 352 354 359 361 359 358 366 372 366 368 372 369 370
350 351 350 350 354 351 353 353 356 358 357 356 358 356 359 353 351 349 350 350 356 357 354 356 355 357 367 369 370 368 371 372 373 372 370 372 373 368 370 374 370 371 376 372 364 367 368 365 365 364 364 358 354 349 350 353 351 349 349 349 355 359 356 344 345 345 344 342 346 345 349 345 348 352 360 364 364 358 359 364 377 364 370 377 371
348 350 353 352 353 353 358 359 356 356 357 359 364 361 362 364 364 359 355 352 354 358 354 357 361 359 360 367 370 371 371 371 370 370 368 366 368 371 373 379 373 371 374 375 372 367 372 363 365 366 364 361 357 354 363 361 348 348 353 347 343 342 351 351 341 341 340 339 341 343 347 344 347 350 352 355 360 361 357 364 361 366 369 375 373
349 348 351 353 352 357 359 360 358 358 361 362 365 360 362 364 368 361 357 359 357 358 360 361 361 358 358 364 369 370 368 365 366 363 366 363 366 370 366 371 372 371 371 370 371 365 370 367 362 363 366 355 351 356 354 364 354 353 360 352 351 342 342 355 354 350 342 342 335 340 342 341 347 349 353 353 351 358 367 368 360 364 372 374 374
346 348 349 352 353 352 358 361 360 361 362 363 365 367 367 364 365 365 364 361 362 361 359 354 357 360 359 361 362 367 369 365 365 365 367 369 369 369 369 366 375 372 372 375 371 362 364 363 368 371 364 362 348 356 356 352 362 361 366 358 347 344 341 339 346 359 342 340 334 338 349 344 342 350 352 348 353 354 358 355 363 367 370 373 370
347 348 350 350 355 356 359 363 363 364 360 363 368 369 367 363 359 359 359 358 358 357 356 355 354 355 355 356 361 362 364 366 368 369 368 368 369 369 368 366 368 373 369 370 365 365 365 365 369 361 360 368 358 355 357 365 351 368 367 362 356 352 357 348 343 349 363 342 341 336 350 339 343 345 353 354 349 355 351 353 364 367 368 367 369
347 349 351 350 354 356 358 361 363 364 362 366 367 368 365 364 361 356 356 357 358 358 364 361 361 358 362 361 364 363 367 363 361 367 367 371 371 372 368 372 367 370 371 371 367 361 359 360 364 368 366 368 366 359 355 350 360 365 357 349 353 357 348 356 351 353 344 348 338 340 338 344 341 340 340 339 344 347 348 350 350 351 362 365 363
348 349 348 350 356 360 360 362 364 365 363 366 366 366 364 365 362 358 357 357 354 358 360 362 360 366 360 359 362 365 365 368 366 371 369 368 370 370 373 371 371 366 374 370 365 366 364 367 368 373 371 370 368 362 358 356 353 356 354 354 352 348 352 352 358 354 350 342 345 343 340 338 342 342 342 345 343 348 355 355 350 352 362 364 364
347 347 347 350 356 359 361 362 363 365 364 367 365 365 367 365 361 360 360 361 360 359 361 363 362 364 361 361 364 361 366 370 367 366 369 367 369 370 371 370 370 369 377 367 364 363 361 366 373 372 370 374 373 370 365 367 354 354 360 361 361 357 349 346 352 348 350 350 343 336 339 341 341 341 341 347 345 355 362 365 366 354 365 363 367
346 348 348 351 355 358 360 361 363 365 364 366 366 366 366 366 361 360 358 359 362 362 361 362 368 365 361 363 369 368 359 363 366 369 370 368 368 370 366 363 365 360 363 366 361 362 366 369 366 364 370 369 371 367 368 367 360 358 358 371 364 370 363 349 344 346 342 355 338 343 341 341 345 356 348 343 351 351 362 363 365 358 365 370 362
347 347 348 351 355 356 358 359 363 364 365 365 365 364 365 364 362 363 360 358 358 359 362 361 367 362 362 361 365 369 366 361 359 365 365 364 367 369 362 362 363 371 366 368 366 362 357 362 358 367 366 372 370 371 361 366 362 373 355 379 366 352 360 352 357 351 346 344 347 345 348 341 342 342 353 346 350 348 352 358 359 350 362 366 374
Wind_Speed
11 13 11 14 12 12 13 13 11 9 8 7 7 8 8 7 6 5 5 7 7 7 8 8 9 9 10 12 12 12 11 12 13 12 12 12 12 12 12 13 14 13 14 14 14 15 15 14 15 14 15 15 15 14 15 15 15 15 15 15 15 14 14 15 15 14 13 15 16 16 15 15 15 14 14 13 14 14 11 11 12 9 7 8 11
13 12 10 11 12 11 12 13 12 9 6 6 6 6 6 4 4 5 6 7 7 8 8 8 9 10 11 12 13 12 12 13 13 13 14 14 14 16 15 11 10 11 12 13 13 13 14 14 14 15 15 15 14 14 14 15 15 15 15 15 14 14 15 15 15 15 15 16 16 17 16 16 15 14 15 15 14 14 13 13 13 8 4 11 12
13 12 11 11 12 11 11 12 11 9 8 7 6 7 7 5 5 8 8 9 9 9 8 9 10 10 11 12 13 13 13 13 13 14 14 15 16 17 14 11 9 10 11 11 12 13 13 13 14 13 14 14 14 14 14 14 14 14 14 14 13 14 13 14 14 10 14 17 17 17 17 16 15 15 15 14 14 14 15 15 13 12 7 12 10
15 12 11 12 12 11 12 13 12 11 10 9 8 10 9 9 8 8 8 9 9 10 9 9 10 10 12 12 13 13 13 13 13 15 14 15 15 15 14 11 9 10 9 11 12 12 12 12 13 13 14 14 13 14 13 14 14 14 13 13 12 12 11 11 10 7 11 11 13 12 6 6 10 15 14 14 13 14 14 14 14 13 13 11 12
15 13 11 10 10 8 11 12 12 14 8 6 7 9 9 9 9 9 8 9 10 10 10 10 10 11 12 12 13 14 14 13 13 15 14 14 14 13 13 12 8 9 10 10 12 12 12 12 12 13 13 13 12 13 13 12 13 13 12 12 12 12 11 9 7 7 4 2 11 10 6 7 7 14 14 13 13 14 14 13 13 13 13 12 12
15 13 12 11 11 10 11 12 14 13 11 10 6 6 8 8 8 8 8 9 9 9 9 10 10 11 11 12 13 14 14 13 13 13 14 14 14 14 11 10 7 9 11 12 11 12 12 12 12 12 12 12 12 12 12 12 12 12 11 10 10 10 7 5 2 2 2 4 11 5 6 7 7 7 14 13 13 13 13 13 12 11 11 12 12
16 13 13 12 10 11 11 13 15 13 12 11 6 7 8 8 7 7 7 8 8 10 10 10 10 11 12 12 12 14 14 14 13 12 13 14 14 13 11 8 11 12 12 12 12 11 12 13 12 11 11 12 11 11 11 11 11 11 9 8 8 10 9 7 7 2 3 1 5 5 6 8 7 6 13 12 12 12 12 12 11 10 11 11 12
14 12 11 12 11 12 12 13 12 13 13 10 9 7 7 7 7 7 7 7 8 10 11 10 11 11 11 11 12 13 13 13 13 12 13 13 12 12 11 9 11 13 13 13 12 12 13 13 11 11 11 11 11 11 10 10 10 10 8 7 7 9 8 7 7 4 3 5 5 5 6 7 7 6 12 13 11 11 11 10 11 11 11 11 11
12 13 14 13 12 16 14 13 12 12 11 10 9 8 7 6 7 7 7 7 8 9 10 11 11 10 12 11 12 12 13 12 12 13 13 14 14 13 10 9 11 12 13 13 12 12 13 13 11 9 10 11 11 10 10 10 10 9 7 7 10 12 9 8 6 4 6 5 5 5 7 6 8 7 11 13 11 11 9 8 9 12 12 12 11
12 14 14 11 12 16 14 13 11 11 10 9 9 7 7 6 7 8 7 7 8 9 9 10 10 10 10 11 11 13 13 12 12 12 13 14 14 14 11 10 12 12 12 12 13 12 13 13 12 10 12 10 10 9 9 9 8 7 6 7 7 8 8 6 3 8 5 7 8 9 7 11 7 8 11 12 12 11 11 12 10 10 9 12 11
14 13 13 13 14 14 14 13 12 11 10 10 8 7 6 6 7 9 8 8 8 7 10 10 10 9 10 10 10 12 13 12 11 12 13 13 15 14 13 13 12 12 10 11 12 12 12 13 13 12 11 10 10 9 9 8 7 6 5 5 6 7 6 3 4 1 5 7 8 7 10 14 6 5 11 11 11 11 13 12 11 11 11 11 11
15 14 13 12 15 14 13 13 12 12 11 9 8 7 7 6 8 10 9 7 8 10 10 11 11 11 10 11 11 12 13 12 12 10 12 12 13 14 13 13 13 10 10 10 11 11 11 11 11 12 11 10 9 8 8 7 6 5 5 4 5 5 6 6 3 4 6 7 7 8 9 9 7 9 12 11 11 11 12 12 11 11 10 10 10
16 14 13 12 12 14 13 13 13 12 11 10 10 8 7 6 8 10 12 10 8 10 11 10 11 11 11 11 11 12 14 14 13 13 12 12 13 13 14 13 12 11 11 10 10 11 12 12 11 11 10 8 8 7 7 7 6 5 4 4 6 7 3 5 6 6 6 6 6 7 7 6 7 8 10 10 10 10 11 12 11 11 11 10 9
16 14 12 11 10 13 13 13 14 13 10 10 9 9 9 8 9 8 11 10 11 11 12 11 10 11 12 12 11 12 13 13 13 13 13 13 13 14 14 14 12 11 10 9 9 10 11 12 12 10 9 8 7 7 7 6 5 4 4 4 4 6 7 3 7 4 6 6 6 8 7 5 5 8 10 9 9 9 10 11 11 11 11 10 9
15 15 13 12 10 10 14 14 14 12 10 10 10 10 9 10 10 9 10 10 10 10 11 11 11 11 12 12 12 13 13 13 13 13 14 13 13 14 14 13 12 9 8 9 8 10 11 12 11 9 9 8 6 6 6 5 3 3 3 3 4 6 7 4 3 4 5 5 5 7 7 5 8 8 9 8 8 9 10 10 10 11 11 10 9
16 15 13 12 10 9 9 12 13 12 11 10 10 10 9 9 7 8 8 10 9 9 12 11 12 12 10 13 13 13 14 15 14 14 14 13 13 13 13 13 11 10 9 10 10 11 12 12 10 9 8 7 6 5 5 4 2 2 3 5 5 6 6 5 3 4 4 5 6 6 6 5 8 8 8 8 8 8 9 9 9 9 10 9 9
15 14 14 12 11 9 8 8 10 12 10 11 11 10 9 9 8 8 9 10 10 10 11 11 12 13 11 12 14 13 13 14 15 13 13 14 14 13 12 11 11 10 10 8 9 11 12 11 9 8 7 6 5 5 4 2 1 1 2 5 5 7 6 7 5 4 4 6 5 5 4 4 6 7 7 7 7 8 8 8 8 9 8 8 7
14 14 11 10 9 9 8 8 9 7 7 8 11 10 9 9 10 10 9 9 10 10 11 13 14 12 13 12 13 14 13 13 14 14 13 14 13 13 13 12 11 10 9 9 10 10 10 9 7 6 6 6 5 5 3 2 1 1 3 6 6 7 7 7 4 4 5 5 6 5 4 5 5 5 6 5 6 7 7 7 7 8 7 7 6
14 13 12 10 9 8 8 7 8 7 7 5 5 7 9 8 9 9 10 11 10 11 12 13 13 12 13 14 12 13 13 14 12 12 13 13 13 13 12 12 11 11 10 10 10 10 9 8 6 4 4 5 5 4 3 2 1 2 3 6 8 6 8 6 4 3 6 5 5 5 3 4 4 4 4 5 6 6 6 6 6 6 6 5 5
12 13 13 5 3 8 6 6 7 7 6 6 6 7 8 10 10 10 11 12 12 12 13 13 14 12 13 15 14 11 12 12 14 10 11 13 12 11 13 11 10 10 10 10 9 9 9 7 5 4 4 4 3 4 3 2 3 2 4 6 7 8 4 1 4 5 4 5 6 3 4 4 4 4 4 3 4 5 4 5 5 5 5 5 4
8 12 13 6 4 6 7 6 7 8 7 6 6 7 8 10 10 11 12 13 13 13 14 16 12 11 12 13 11 8 7 7 7 8 10 8 8 11 11 11 11 10 10 8 8 8 7 6 5 4 4 5 4 5 4 4 4 6 5 6 8 4 6 3 5 3 6 5 4 4 3 3 2 2 3 1 2 4 3 4 5 4 4 4 4
10 10 12 11 5 5 6 6 7 7 6 7 6 6 6 9 8 7 8 9 11 12 10 10 9 7 13 9 6 7 6 6 6 8 5 7 8 11 11 11 11 10 8 7 6 5 4 4 4 5 5 6 6 3 3 5 8 7 8 8 5 6 1 3 4 4 7 5 4 4 4 2 1 1 1 1 2 3 3 3 4 4 3 3 4
10 10 11 13 7 4 6 6 5 6 6 6 6 6 6 5 7 6 7 10 7 6 7 9 6 6 5 5 5 6 6 6 5 5 5 8 9 11 11 10 9 8 7 5 2 2 1 3 4 5 5 7 5 5 3 4 4 9 8 6 4 1 3 3 2 7 6 5 3 6 4 3 0 1 1 1 2 3 3 3 3 4 4 3 4
11 10 12 9 6 6 9 7 5 5 4 5 6 6 6 5 6 6 7 7 6 6 6 7 5 6 6 4 5 5 6 5 10 12 10 6 7 10 11 10 9 7 7 3 2 2 3 5 6 6 6 5 5 5 5 4 5 4 4 5 5 4 1 3 5 6 4 5 5 7 4 3 0 1 1 2 3 3 3 3 4 4 4 4 4
8 10 10 11 7 7 6 8 7 5 4 4 5 5 5 4 4 6 6 6 7 7 8 9 7 7 6 6 8 6 6 6 6 6 4 5 5 5 4 3 3 4 5 2 2 2 3 3 4 5 4 6 7 8 7 7 7 2 2 0 1 3 4 4 4 7 4 4 4 7 5 2 1 2 3 3 3 3 4 4 5 4 5 5 5
7 9 9 11 12 7 7 6 6 5 5 2 4 5 6 5 4 5 5 5 5 6 6 7 7 6 6 7 7 7 6 5 5 5 5 5 5 4 4 3 4 3 4 2 2 3 4 5 4 5 6 5 7 1 2 3 4 3 3 3 2 2 4 3 5 6 5 4 4 7 4 2 1 3 4 5 4 5 5 5 6 6 6 6 6
9 10 12 8 11 11 10 8 8 7 7 5 3 3 4 5 5 4 5 5 5 6 6 6 5 5 6 8 7 6 6 5 5 4 4 4 4 4 4 3 3 3 3 3 3 3 3 4 4 4 6 8 2 1 3 3 3 4 1 2 2 3 2 3 4 7 5 4 4 7 4 3 3 3 5 5 6 6 7 7 7 8 8 8 8
8 11 11 11 10 14 11 8 6 6 5 6 6 5 4 4 5 4 3 4 5 6 7 7 6 5 6 6 7 6 6 6 6 5 4 4 4 4 3 3 3 3 4 3 3 3 3 3 5 6 4 3 5 3 2 3 2 4 3 2 3 3 4 3 1 6 6 4 4 5 5 3 3 5 6 6 6 7 7 8 9 9 9 9 10
11 11 11 10 13 10 13 13 10 7 6 7 6 6 6 5 5 4 3 4 3 5 6 6 6 5 4 4 4 6 5 6 6 6 4 3 3 3 3 3 4 3 3 3 3 3 3 3 4 3 2 1 3 4 4 2 1 4 3 4 4 3 2 2 1 4 7 5 4 4 6 5 5 6 6 7 7 7 8 8 9 10 10 10 10
10 13 11 9 9 14 10 14 13 9 5 3 3 4 5 5 5 5 5 4 4 6 7 6 5 5 3 2 2 5 6 6 5 4 4 3 3 3 1 3 3 2 3 2 2 2 5 5 3 3 1 2 2 2 3 4 2 3 2 4 4 5 3 3 4 4 7 5 4 4 8 7 7 7 7 7 8 8 9 9 10 10 11 11 11
11 12 11 10 10 9 12 13 10 12 7 6 4 5 5 4 5 5 6 5 5 4 5 6 6 5 4 3 2 2 4 6 5 4 4 3 2 0 2 1 3 2 2 3 2 4 2 2 1 2 3 4 1 2 2 2 4 5 3 4 3 3 2 3 1 5 7 6 4 4 5 9 9 9 8 9 9 9 9 10 11 11 11 12 12
11 13 10 11 10 12 11 12 14 11 10 8 4 5 5 5 4 2 3 4 4 3 3 6 5 5 6 5 5 3 3 4 6 6 5 3 3 2 3 2 2 2 1 3 2 2 3 1 2 2 4 5 3 4 3 4 3 4 2 3 2 4 3 4 5 5 6 6 6 5 4 6 9 10 9 9 9 8 8 9 10 11 11 12 12
9 12 13 12 14 11 12 12 12 13 13 14 10 7 5 6 4 4 3 4 4 5 4 6 5 4 6 8 7 6 3 4 4 4 5 6 5 3 4 3 3 4 2 2 2 3 3 2 2 2 3 3 3 2 5 2 2 3 3 6 3 3 2 2 2 6 6 4 5 7 5 5 5 8 9 8 8 9 9 9 9 9 10 10 11
9 8 13 14 11 10 8 9 11 11 12 12 10 10 8 6 5 6 7 8 7 4 6 4 4 3 3 4 5 6 3 3 4 4 3 4 8 6 4 4 3 3 1 2 2 1 3 4 4 4 4 5 4 3 3 2 4 1 1 3 3 2 3 2 2 4 3 6 2 4 6 6 5 4 4 8 8 8 8 8 8 8 8 8 9
9 10 13 13 11 12 10 8 10 11 9 10 8 8 10 9 5 3 3 3 4 5 7 7 5 5 4 4 4 4 2 2 1 1 3 2 3 3 3 2 3 3 2 1 1 1 1 2 2 2 3 2 4 1 4 4 2 3 2 4 3 1 1 2 1 4 4 3 6 5 2 4 6 5 4 4 6 7 7 7 6 5 5 5 6
11 10 11 10 12 11 12 11 11 11 9 7 6 5 7 7 6 5 5 4 4 6 6 7 7 6 5 4 4 4 4 3 2 2 1 1 3 2 3 2 3 4 3 2 2 1 1 1 2 2 1 4 4 5 3 2 1 4 3 2 2 1 1 3 3 3 6 3 3 3 5 2 4 5 7 5 4 4 7 5 5 4 2 2 4
12 12 10 10 11 12 13 14 12 11 9 10 9 6 5 4 5 8 8 5 6 5 4 5 6 5 5 5 3 3 3 4 2 2 2 2 2 4 3 3 3 2 2 2 2 2 2 2 1 1 2 2 5 7 3 3 2 3 4 4 2 1 1 1 1 5 4 3 1 4 3 6 5 5 3 3 3 3 5 4 2 3 2 3 3
12 12 11 11 11 11 11 12 13 11 8 7 7 8 7 5 4 4 2 4 6 6 4 3 3 5 5 4 4 3 4 5 2 1 1 2 1 2 3 4 2 3 2 2 3 2 2 2 2 1 0 2 3 6 4 3 5 5 2 6 2 2 1 2 2 5 4 4 2 2 2 4 4 4 3 2 3 5 4 4 3 1 4 3 5
11 12 11 8 9 9 9 10 10 11 9 8 5 6 7 4 5 4 3 4 3 4 4 4 4 3 6 5 4 4 4 5 3 2 2 2 2 1 4 2 2 2 1 1 1 2 1 1 0 1 2 2 4 6 4 5 6 3 6 4 3 3 4 3 1 2 4 4 5 3 5 3 6 4 3 2 2 3 4 3 3 2 1 2 5
11 11 10 10 8 9 10 7 8 10 9 7 5 5 6 6 7 4 3 4 4 5 5 5 4 3 7 6 3 2 3 3 4 2 0 0 2 1 3 3 3 2 1 1 1 2 2 1 2 4 4 4 5 4 6 4 3 2 3 4 4 3 0 4 5 3 5 3 4 3 6 3 5 5 4 2 0 2 4 4 4 3 3 2 3
12 12 11 12 11 10 9 9 8 8 7 6 5 5 5 5 5 7 5 7 7 7 5 4 5 6 6 6 5 4 3 3 5 3 2 1 1 0 2 2 2 1 1 1 2 3 2 1 2 2 4 5 6 7 2 4 3 0 2 4 2 2 2 2 3 3 6 4 5 4 4 4 4 5 3 2 3 3 2 2 3 3 4 4 1
11 11 11 11 11 12 10 10 8 7 7 6 5 5 4 5 5 5 6 6 4 4 6 6 6 6 6 4 4 5 3 3 3 3 2 2 1 2 3 1 1 1 2 3 3 1 3 2 1 2 3 5 4 3 5 4 5 2 3 2 2 2 3 4 7 9 5 5 4 7 5 7 7 5 3 3 2 4 2 2 2 4 2 3 3
14 13 11 10 11 9 7 7 8 7 6 6 4 5 4 4 3 5 2 4 4 2 7 5 5 7 6 4 4 4 3 3 3 2 2 4 1 3 0 1 2 1 3 3 1 1 1 3 0 2 5 4 3 1 1 2 4 3 3 3 2 2 3 3 7 9 6 7 4 7 6 7 7 6 7 4 3 3 2 2 4 3 3 0 1
11 12 13 11 10 8 8 7 7 6 5 6 4 5 6 4 4 7 2 2 3 1 4 6 5 6 7 6 4 4 4 4 4 4 4 4 2 1 2 1 2 2 2 2 0 3 1 2 1 2 2 3 5 1 3 2 4 6 2 1 1 1 3 2 1 3 3 3 7 10 6 7 9 5 5 3 4 3 1 2 4 3 2 0 1
12 12 13 11 9 12 9 7 6 6 5 6 6 6 6 6 5 5 4 2 1 3 3 5 4 4 5 5 5 5 3 4 4 3 3 4 4 2 0 2 1 2 1 0 1 3 2 3 1 3 2 2 5 1 3 2 2 4 1 1 3 3 1 5 1 1 4 5 6 2 6 3 7 4 3 6 5 4 2 5 3 2 1 2 2
12 12 13 13 13 11 10 8 6 6 7 8 7 5 5 6 4 3 3 2 2 3 0 4 5 5 5 5 6 6 5 4 3 2 3 3 4 5 4 2 2 3 1 0 1 3 1 5 2 1 4 2 3 6 1 0 3 2 2 2 6 3 2 3 3 1 2 5 3 3 2 8 9 5 3 2 7 3 5 3 3 2 1 1 2
12 13 12 13 14 13 11 9 7 6 8 8 7 5 5 5 6 5 4 2 4 2 1 2 2 3 2 3 4 4 3 4 5 3 3 3 2 2 2 2 2 2 3 2 0 3 3 3 2 1 2 4 5 4 6 1 4 2 3 1 2 2 4 2 0 1 2 5 8 9 9 15 4 3 7 9 5 7 5 4 5 4 3 2 3
14 13 12 12 14 11 12 9 7 7 7 8 7 6 6 5 4 4 3 3 3 3 2 1 1 3 3 3 3 3 3 3 2 3 3 3 2 2 2 2 1 3 1 1 3 2 3 2 2 1 3 4 4 4 4 5 5 1 5 6 2 4 4 2 1 3 1 2 1 8 5 2 9 1 4 4 7 3 2 4 4 4 3 2 3
13 13 13 11 13 11 10 10 8 8 8 9 7 7 6 5 6 4 4 3 2 3 1 0 1 3 4 4 3 4 4 3 4 4 3 3 2 2 2 1 1 2 0 3 3 4 5 1 3 0 1 3 3 2 3 4 5 2 3 3 3 3 2 2 2 4 2 2 4 4 3 7 3 10 8 6 4 1 1 0 3 4 2 2 1
13 13 13 14 13 12 10 11 10 8 8 9 8 8 7 7 7 5 6 4 3 3 4 3 1 5 1 1 2 3 4 4 4 3 3 3 3 3 2 3 3 2 2 2 2 2 5 3 2 1 2 1 4 3 2 3 3 5 1 1 2 2 1 3 3 2 0 1 4 2 1 1 2 1 5 9 2 2 0 0 0 2 1 1 3
12 13 13 14 13 12 12 10 11 8 9 9 8 9 8 7 6 6 7 6 5 4 3 4 1 4 1 1 1 1 2 4 5 4 4 5 4 3 4 4 3 1 3 2 4 5 2 1 4 4 3 1 3 3 4 2 4 2 5 1 2 4 4 2 2 2 1 3 1 1 3 2 1 2 3 4 3 3 3 0 1 3 2 2 1
Wind_Direction
119 119 115 119 116 117 113 113 114 117 116 126 117 98 84 91 96 90 107 115 120 122 125 118 116 110 108 111 113 112 105 99 97 97 93 88 94 92 83 83 84 82 85 91 91 92 89 87 85 81 85 86 89 88 87 85 86 86 87 87 85 88 95 98 99 98 97 95 90 86 80 78 75 74 76 74 71 67 67 62 71 69 73 72 72
128 121 119 120 120 118 118 118 122 124 127 112 108 101 107 114 137 134 130 131 123 113 115 119 117 113 109 109 111 111 107 99 100 99 94 89 82 80 76 65 81 89 93 91 91 89 88 87 85 84 84 88 88 88 86 87 88 88 88 89 89 93 95 98 101 102 100 96 92 85 82 78 75 75 74 72 70 72 75 77 76 74 67 71 71
124 119 118 121 123 127 129 125 127 131 137 134 136 136 139 140 152 136 134 135 122 113 112 117 117 112 107 108 110 108 101 99 98 94 94 90 93 98 104 113 88 92 99 94 92 89 89 87 85 86 86 89 88 89 88 88 89 90 90 90 93 94 89 83 79 89 110 106 96 89 83 78 75 74 73 71 72 71 72 73 73 76 74 78 78
122 121 122 126 130 133 133 136 137 139 139 144 151 152 147 139 124 122 123 120 122 120 117 115 114 107 108 105 105 105 103 103 101 102 97 99 103 110 110 101 97 100 99 102 97 95 94 90 88 88 89 86 91 90 91 90 90 92 94 95 96 97 93 94 102 108 107 108 92 85 79 75 72 70 71 72 72 71 72 74 76 77 77 76 75
122 125 125 128 127 127 125 121 119 101 102 110 103 122 122 126 132 132 131 126 125 128 125 120 119 117 115 111 111 108 109 107 108 106 105 107 108 103 108 112 115 114 109 108 103 100 98 96 92 92 93 96 95 94 92 92 91 93 93 95 90 82 90 101 117 135 161 246 85 96 90 82 74 68 70 71 70 71 74 75 77 78 80 77 75
126 128 131 128 122 123 122 118 112 129 131 107 167 141 132 131 136 136 133 127 122 117 116 116 115 115 111 115 115 113 111 108 105 108 111 109 106 112 117 118 123 131 121 110 107 102 98 97 90 78 89 95 96 95 92 92 91 91 93 93 90 85 72 82 107 108 259 331 99 88 87 79 72 67 71 70 71 71 73 77 78 81 84 83 77
128 132 131 126 122 120 119 119 122 124 127 136 149 138 134 137 137 135 130 124 116 113 114 110 106 113 118 116 122 118 112 111 114 116 117 114 116 118 118 115 114 111 110 110 108 102 95 86 86 98 94 96 94 94 93 90 91 87 86 81 76 74 64 47 63 60 37 304 92 88 86 83 76 71 67 65 66 70 70 76 79 83 86 81 74
128 127 127 115 116 122 115 115 121 127 131 134 142 129 133 136 135 130 133 127 121 116 119 114 114 118 119 125 125 123 113 109 117 120 116 115 117 119 123 118 118 114 110 112 106 103 97 95 91 88 97 97 98 94 95 92 89 88 82 72 63 68 76 55 44 38 280 61 68 84 89 79 74 77 72 71 62 73 77 72 76 73 75 79 78
122 122 114 113 117 117 119 121 123 120 122 130 132 133 134 132 133 134 135 132 120 115 119 122 118 119 120 123 129 122 115 115 123 124 122 124 125 125 129 123 121 113 109 110 107 103 102 104 100 99 100 100 100 100 99 96 88 86 74 60 54 55 43 41 39 76 69 62 84 94 82 78 83 76 68 71 74 69 71 84 82 77 73 74 74
124 110 110 115 118 118 118 118 117 119 122 125 127 131 133 136 139 137 114 93 102 121 123 125 122 120 124 136 128 122 117 126 124 123 128 127 129 132 131 129 121 114 109 105 107 105 103 102 101 95 99 99 98 98 94 92 91 86 79 59 59 75 71 70 352 86 93 82 71 63 75 85 77 70 72 71 71 71 74 71 71 75 78 78 78
124 110 109 108 109 112 116 116 116 113 110 113 120 121 129 137 129 108 99 116 121 123 125 128 132 132 136 136 129 124 127 131 124 126 129 130 131 132 130 125 115 108 101 103 106 105 105 107 108 109 104 99 95 93 89 86 88 80 68 60 49 73 102 83 299 102 117 121 107 97 86 78 71 69 72 69 65 66 68 69 69 69 73 76 80
107 104 104 106 107 109 115 116 115 113 112 115 117 116 111 113 109 112 119 135 135 130 127 135 139 146 145 141 134 127 131 131 132 130 131 127 128 130 128 119 119 108 97 101 107 110 110 108 105 99 93 92 88 88 90 88 81 77 60 34 20 39 115 176 225 81 66 62 71 80 76 73 71 78 78 72 67 65 66 68 70 72 73 75 76
110 109 111 110 110 110 109 109 105 104 108 112 112 112 105 110 129 129 141 138 137 143 132 137 138 148 148 136 129 132 136 138 136 134 131 127 127 124 121 123 119 107 107 108 108 107 107 104 99 98 96 94 90 88 89 87 82 70 48 28 359 359 328 345 70 74 66 61 68 78 80 78 77 76 76 74 72 71 69 66 66 69 71 72 74
111 113 111 113 116 113 109 105 103 102 105 112 118 128 138 131 104 105 123 145 152 140 140 141 145 146 145 133 133 133 133 133 133 132 128 124 124 123 121 125 120 116 119 114 104 101 105 100 97 98 101 98 99 93 84 81 74 57 29 11 342 323 355 286 87 93 107 96 83 74 69 72 76 72 77 75 73 69 67 71 69 67 68 67 68
107 108 112 115 115 111 108 105 104 107 102 97 89 92 98 107 120 137 137 138 128 135 135 144 145 140 139 139 135 137 134 133 131 129 125 122 121 121 122 124 124 124 122 112 109 110 105 100 100 101 102 102 97 93 85 76 68 44 349 320 323 312 313 83 68 60 77 87 93 92 88 83 80 76 78 78 74 69 66 62 65 69 70 70 68
105 109 111 112 114 113 106 107 106 104 103 101 97 94 105 107 121 128 127 121 120 133 133 141 140 132 134 136 138 135 134 134 132 126 123 122 121 122 126 126 128 124 121 114 113 111 106 104 103 104 102 100 97 96 92 79 43 2 324 319 323 336 349 357 116 141 123 119 110 98 88 80 78 78 78 78 74 69 68 66 64 65 68 75 75
111 109 108 111 113 112 114 104 103 104 106 108 108 111 113 116 119 122 123 120 133 136 134 137 121 117 128 133 126 125 127 127 122 123 123 124 125 128 133 132 133 130 123 114 114 110 102 101 105 105 106 106 106 102 107 92 25 291 308 320 325 336 338 334 121 103 81 68 66 75 83 83 76 82 80 77 70 69 67 67 64 63 65 67 71
107 109 93 91 107 114 110 105 105 104 107 101 104 110 117 124 128 126 122 125 127 130 134 129 125 132 133 127 121 124 124 117 120 124 125 123 127 130 129 127 127 125 125 118 113 103 100 97 94 104 111 120 118 118 121 154 222 303 304 320 318 317 327 347 79 75 101 92 83 86 83 87 85 88 93 84 75 66 69 66 68 66 63 59 56
109 107 105 115 113 114 93 107 110 112 110 116 113 111 116 115 110 114 123 127 128 128 124 125 126 129 129 116 119 122 121 114 112 119 122 124 123 120 120 123 126 125 122 117 107 101 102 103 111 118 129 123 124 126 136 176 222 302 317 316 316 319 320 299 138 140 98 90 86 90 91 99 97 87 72 60 61 62 58 64 56 55 62 63 63
115 114 100 84 106 91 104 117 120 115 116 115 109 107 103 105 109 116 115 122 127 127 125 123 122 129 124 120 126 121 114 117 124 114 118 122 120 121 124 126 126 121 114 109 105 104 106 114 122 140 145 145 143 153 155 174 241 248 280 284 289 298 303 154 93 92 85 89 95 92 115 113 86 71 63 56 51 59 50 50 48 44 42 48 49
119 109 110 142 124 118 124 126 119 119 119 117 110 103 108 106 103 108 117 120 122 124 121 109 116 116 119 120 112 102 106 106 109 116 116 104 118 126 126 126 120 118 113 112 113 117 123 135 156 157 163 163 170 181 195 211 221 239 243 260 267 281 254 158 95 95 101 97 95 99 94 108 112 77 80 59 27 47 42 39 34 29 29 31 28
120 119 119 108 133 121 117 119 125 129 133 123 115 115 111 112 114 115 116 117 115 118 117 116 117 112 115 111 111 111 109 106 109 112 116 125 133 131 125 121 116 117 116 115 114 114 131 148 175 183 196 196 200 192 205 225 230 232 239 250 265 257 334 92 113 122 95 93 99 123 125 120 66 74 86 86 30 21 35 18 13 15 1 10 6
119 119 119 120 142 135 118 118 119 139 144 128 118 120 119 124 121 120 109 110 115 106 112 118 121 118 116 115 115 125 117 117 119 123 130 140 133 126 123 117 118 119 118 110 119 151 208 214 217 223 214 226 220 247 206 211 221 228 239 242 248 224 226 126 114 83 94 97 101 135 156 142 8 37 21 16 8 2 9 10 348 345 347 341 342
129 126 125 119 139 138 136 136 139 154 138 121 123 129 143 136 129 128 120 122 124 131 115 97 125 136 128 141 126 121 130 131 129 139 138 135 124 124 123 125 125 123 124 133 142 213 238 251 247 236 235 236 237 240 225 211 214 206 205 224 217 193 137 109 108 102 91 109 119 158 149 164 100 311 323 340 344 337 344 342 340 334 328 331 330
117 119 116 119 132 123 120 134 143 143 126 122 122 133 125 125 131 127 130 131 131 126 130 142 139 139 153 141 129 132 125 125 136 148 146 138 135 131 135 143 149 140 165 136 188 169 220 210 233 236 235 232 225 222 201 204 216 183 152 180 154 139 105 48 69 95 102 99 128 151 163 163 210 335 311 314 315 328 328 334 318 332 320 322 320
137 110 114 124 130 135 144 136 147 153 124 129 121 125 120 130 130 135 135 132 132 128 126 127 135 142 143 131 130 126 136 146 147 138 138 145 151 150 158 168 159 158 194 162 187 195 218 221 216 219 231 236 227 235 242 182 89 119 152 184 164 68 65 72 78 105 110 124 143 157 155 203 261 296 313 304 305 306 317 318 325 320 317 316 322
126 130 116 134 135 147 148 154 152 151 151 143 124 142 146 138 137 141 135 132 136 133 129 126 131 144 143 133 135 141 141 146 136 134 141 155 157 168 169 161 168 157 192 185 196 213 233 237 227 241 232 234 110 187 272 354 119 88 68 43 26 77 88 118 128 122 117 111 136 157 168 187 256 275 289 295 300 302 306 309 309 311 306 304 302
124 121 124 141 147 140 139 146 148 144 142 151 161 156 142 142 136 149 131 135 138 134 133 131 147 158 148 150 144 148 151 143 142 150 151 175 166 174 154 165 161 166 196 191 188 219 231 235 243 225 220 194 163 149 104 242 150 143 146 70 39 26 107 94 107 124 121 117 125 164 171 201 238 267 274 288 298 299 303 303 304 303 299 296 296
136 137 132 137 135 136 147 148 148 148 150 167 164 141 149 139 136 141 137 153 161 132 126 136 138 137 141 134 147 141 144 146 153 152 167 173 158 163 181 186 163 166 198 205 205 201 236 256 247 266 304 259 155 173 191 201 170 127 137 162 140 165 78 68 16 110 118 127 123 157 179 202 234 251 265 275 288 296 298 301 299 295 295 296 298
137 128 129 132 129 128 136 141 141 145 153 155 119 139 109 115 143 152 150 184 165 131 140 140 134 136 130 97 111 151 150 148 150 147 158 161 164 196 308 233 128 162 209 199 223 208 236 225 221 233 235 229 30 350 257 182 190 62 110 133 173 111 168 174 172 109 114 110 121 149 186 200 221 237 252 264 273 286 292 295 295 294 296 299 303
139 125 129 130 137 129 136 133 120 129 143 143 156 122 121 160 174 158 167 181 146 151 151 135 129 136 139 159 185 204 158 147 148 158 164 154 129 277 268 242 163 171 225 240 183 230 317 283 22 10 303 315 196 266 209 348 111 172 179 134 107 150 128 121 189 155 125 126 133 149 188 201 211 224 234 245 258 270 280 287 292 298 302 306 310
130 126 134 133 135 137 142 137 137 142 141 146 139 139 153 161 140 132 172 128 132 168 205 133 136 145 156 176 186 184 185 165 160 173 154 139 133 205 234 292 249 262 123 250 142 223 199 54 27 349 333 313 305 224 262 198 181 98 250 76 124 131 168 168 203 101 99 135 155 154 161 194 209 219 228 239 246 255 268 277 284 294 301 307 313
131 132 136 136 144 147 135 135 137 144 149 148 157 165 156 143 156 161 159 163 170 188 148 125 135 147 146 160 175 174 159 125 97 123 141 159 156 187 202 217 145 205 179 89 57 350 347 169 186 172 260 258 302 21 296 136 13 117 213 147 117 63 307 9 84 138 142 149 162 158 167 176 189 206 225 234 241 250 259 267 282 293 303 312 319
128 142 131 146 142 127 128 127 135 138 144 146 145 143 153 143 176 180 168 180 187 144 120 116 109 101 96 89 81 61 48 58 134 162 151 184 166 181 138 201 125 74 60 346 77 56 32 21 9 355 351 339 304 308 286 272 157 255 55 114 100 129 201 218 129 88 152 138 109 99 175 172 170 168 207 217 230 243 246 268 282 295 308 319 333
137 147 136 140 139 134 134 140 132 130 132 129 143 146 144 143 161 152 165 144 122 126 131 131 137 133 123 100 108 118 85 108 297 31 156 140 124 152 161 112 116 148 98 70 348 104 59 59 25 350 338 295 312 335 298 341 34 62 28 2 85 194 234 32 6 116 66 62 144 159 206 178 157 167 184 169 210 235 249 251 266 287 312 337 356
143 134 126 137 131 131 130 130 130 131 127 135 129 108 115 129 143 170 158 146 143 137 144 145 140 135 133 127 128 131 142 110 78 33 26 81 186 112 74 91 62 65 53 45 266 103 79 62 5 332 53 335 330 303 253 253 233 144 125 128 84 285 220 151 179 140 123 177 147 160 177 117 87 140 176 179 165 190 225 230 253 265 269 360 20
134 135 137 132 132 133 131 137 134 129 134 124 108 109 126 143 165 144 147 152 147 139 140 135 136 135 126 123 123 109 115 94 68 29 6 278 111 111 138 112 104 76 36 356 342 342 328 103 125 274 336 325 306 303 287 276 170 170 170 142 118 283 304 135 8 102 115 75 24 146 195 115 137 144 169 157 135 137 198 230 211 258 218 136 90
133 139 139 142 136 139 141 132 131 135 124 122 131 144 148 154 159 114 96 110 118 123 83 100 99 116 123 124 128 131 117 116 119 50 345 351 14 105 101 94 86 66 32 35 300 38 344 4 343 273 17 328 294 290 265 246 237 147 115 115 137 180 129 84 345 116 156 185 195 135 141 121 123 106 60 108 145 166 165 184 211 284 266 180 108
145 138 139 132 136 138 121 124 133 130 131 138 142 131 128 138 126 125 127 143 147 118 127 126 130 150 126 126 140 138 140 133 122 55 13 335 21 159 108 129 119 103 132 312 249 162 141 284 335 308 322 274 266 277 312 306 19 3 127 96 83 336 69 84 227 208 168 175 134 155 122 126 110 119 144 262 182 185 135 139 155 184 228 219 117
142 134 135 134 110 117 130 130 131 133 134 135 143 146 151 153 138 153 168 110 211 145 145 140 127 131 135 138 114 133 133 137 89 107 82 216 212 189 127 152 117 138 143 238 341 283 94 298 343 360 322 303 280 278 267 280 96 19 66 124 136 212 120 182 217 228 123 134 144 206 120 160 125 144 147 202 21 91 96 145 175 165 147 123 104
134 140 141 138 139 144 141 136 134 134 148 148 157 160 147 150 145 163 154 162 154 137 130 134 145 148 143 131 151 146 135 133 146 144 173 187 22 145 93 10 105 148 159 93 296 283 166 153 30 358 316 283 256 241 259 340 76 58 30 105 139 174 192 260 256 220 179 172 177 138 112 106 99 107 135 191 213 104 146 144 146 129 147 161 171
142 147 149 146 148 148 149 140 137 148 153 158 162 146 147 153 165 158 158 143 141 123 147 152 161 137 119 137 152 137 139 142 137 133 222 93 25 262 105 142 192 258 210 187 190 284 52 3 19 344 249 288 308 334 55 13 342 185 183 170 160 186 181 211 223 236 180 162 155 132 151 148 138 133 151 188 152 132 127 162 112 138 159 182 170
151 154 146 151 147 145 144 143 147 154 158 145 150 138 136 83 59 52 5 137 132 118 120 146 138 142 148 149 131 136 146 144 162 144 188 91 356 351 15 109 308 101 9 351 321 40 17 59 344 262 319 309 278 326 138 128 273 171 146 121 150 201 267 225 246 247 166 157 168 132 174 145 140 156 153 192 165 117 138 149 105 112 101 235 236
158 154 155 158 152 144 148 150 152 151 145 135 135 128 98 96 84 91 93 325 92 305 138 153 155 150 149 147 139 151 167 158 173 178 118 122 180 135 1 351 174 74 123 288 67 238 148 35 240 281 340 347 300 170 173 109 41 34 24 348 244 149 316 310 73 359 346 160 158 131 206 131 149 173 145 149 117 112 203 101 93 96 145 283 313
163 161 158 160 152 153 154 152 159 139 142 139 121 112 119 100 73 77 109 95 67 171 162 150 147 133 146 152 155 168 179 162 173 173 141 142 134 124 196 265 254 139 271 193 1 348 309 195 111 309 294 311 306 20 347 120 72 104 156 77 23 33 312 299 336 334 355 326 62 79 61 157 126 149 146 143 130 156 160 94 93 117 168 232 248
164 168 161 160 152 156 152 155 149 139 152 126 125 133 123 118 123 116 111 144 115 55 69 138 147 153 171 159 156 175 176 162 161 187 140 151 150 163 185 230 195 149 169 99 324 255 112 344 101 21 321 335 342 320 180 81 147 150 171 164 158 163 251 270 15 331 319 351 345 100 184 43 57 9 48 86 148 141 124 119 142 168 233 279 310
170 168 165 156 153 156 156 159 151 146 138 134 144 137 133 143 160 142 139 108 122 102 353 54 94 116 79 171 150 170 167 165 167 169 142 141 171 145 182 136 282 193 163 177 88 341 77 248 355 20 358 344 327 333 343 2 19 235 188 150 73 240 161 90 132 347 1 27 25 2 23 88 324 346 37 17 327 143 157 157 161 150 189 212 250
173 169 166 158 153 151 155 157 147 143 155 144 164 147 143 158 99 113 142 121 126 126 159 58 198 90 180 173 191 159 174 177 150 153 172 153 174 179 162 215 146 310 126 156 75 328 324 253 135 318 21 333 315 346 345 345 345 349 13 8 326 24 26 72 108 97 115 74 335 48 344 118 148 329 29 148 259 49 122 154 154 156 173 179 184
170 172 164 154 149 151 153 149 150 152 152 154 156 157 147 138 128 139 122 117 135 108 73 298 237 155 150 180 199 169 185 171 168 169 180 174 168 192 183 216 238 177 349 59 125 144 264 346 58 153 236 334 311 340 331 333 342 30 45 356 355 335 340 358 99 101 127 125 66 78 339 328 135 142 114 285 273 145 195 93 111 125 160 154 242
168 170 160 149 153 153 157 154 148 149 149 157 161 149 146 122 139 149 139 149 147 139 175 163 184 130 135 148 318 174 181 184 175 176 174 190 175 191 192 199 215 210 117 117 93 259 209 202 181 72 61 238 305 308 287 334 335 338 326 139 28 299 1 68 340 83 128 24 141 203 256 318 298 332 153 193 164 101 77 160 153 109 127 147 184
162 175 159 152 155 156 160 161 149 153 160 162 164 159 153 136 140 151 153 164 152 142 154 151 115 96 127 195 189 224 249 185 186 179 185 200 179 199 210 182 206 132 191 142 189 232 231 163 191 165 177 327 315 341 321 261 270 303 312 201 253 252 185 112 283 59 330 133 85 328 235 204 304 83 325 344 123 214 171 31 260 132 212 204 96